Home > Weather > Khan Yunis > Past weeks

Flag for Palestinian Territories Weather for the Past 2 Weeks in Khan Yunis, Gaza Strip, Palestinian Territories

Now
52 °F

Sunny.


Feels Like: 51 °F
Forecast: 58 / 74 °F
Wind: 5 mph from South

Location: El Arish

Current Time: Feb 14, 2016 at 9:08:26 AM

Latest Report: Feb 14, 2016 at 8:00 AM


Visibility: 10 mi

Pressure: 30.12 "Hg

Humidity: 88%

Dew point: 48 °F

Location of Khan YunisLocation

Historic Weather in Khan Yunis — Graph

°F

Khan Yunis Temperature Yesterday

Maximum temperature yesterday: 73 °F (at 12:00 PM)
Minimum temperature yesterday: 43 °F (at 6:00 AM)
Average temperature yesterday: 57 °F

High & Low Weather Summary for the Past Weeks

 TemperatureHumidityPressure
High79 °F (Feb 4, 3:00 PM)100% (Jan 30, 8:00 AM)30.39 "Hg (Jan 30, 8:00 AM)
Low37 °F (Feb 9, 5:00 AM)21% (Feb 4, 3:00 PM)29.95 "Hg (Feb 5, 6:00 AM)
Average55 °F81%30.16 "Hg
* Reported Jan 30 8:00 AM — Feb 14 7:00 AM, Khan Yunis, Weather by CustomWeather, © 2016

Note: Actual official high and low records may vary slightly from our data, if they occured in-between our weather recording intervals... More about our weather records

Advertising

Khan Yunis Weather History for the Previous 24 Hours

 ConditionsComfort  
Time TempWeatherWind HumidityBarometerVisibility
7:00 AM
Sun, Feb 14
46 °FFog.2 mph100%30.12 "Hg2 mi
6:00 AM46 °FFog.3 mph100%30.09 "Hg1 mi
5:00 AM48 °FFog.5 mph100%30.09 "Hg1 mi
4:00 AM48 °FFog.3 mph100%30.09 "Hg1 mi
3:00 AM48 °FFog.6 mph100%30.09 "Hg1 mi
2:00 AM46 °FFog.3 mph100%30.09 "Hg2 mi
11:00 PM
Sat, Feb 13
50 °FClear.3 mph100%30.09 "Hg4 mi
10:00 PM50 °FClear.2 mph94%30.09 "Hg10 mi
9:00 PM54 °FClear.No wind88%30.09 "Hg10 mi
8:00 PM54 °FClear.No wind88%30.09 "Hg10 mi
7:00 PM57 °FClear.No wind88%30.09 "Hg10 mi
6:00 PM61 °FClear.No wind83%30.07 "Hg10 mi
5:00 PM66 °FSunny.3 mph68%30.07 "Hg10 mi
4:00 PM70 °FSunny.5 mph60%30.04 "Hg10 mi
3:00 PM72 °FSunny.5 mph57%30.04 "Hg10 mi
2:00 PM70 °FSunny.7 mph57%30.07 "Hg10 mi
1:00 PM72 °FSunny.5 mph50%30.07 "Hg10 mi
12:00 PM73 °FSunny.2 mph44%30.09 "Hg10 mi
11:00 AM72 °FSunny.No wind44%30.09 "Hg10 mi
10:00 AM66 °FSunny.No wind64%30.12 "Hg10 mi
9:00 AM59 °FSunny.3 mph82%30.12 "Hg10 mi
Weather by CustomWeather, © 2016

See weather overviewHow to use our weather pages